sat.trackr.live / text

‹ back to catalog

STARLINK-31430

NORAD 59375 · 2024-062B

PAYLOAD ACTIVE UNKNOWN

§ Identity

Operator
Country
US
Launch date
2024-04-02
Launch site
AFWTR
Launch vehicle
Mass (kg)
RCS (m²)

Purposes: comms

External: N2YO · Heavens-Above · Gunter

§ Orbital elements

Epoch: 2026-05-25T00:45:34.331904Z

Period
93.86 min
Inclination
53.1609°
Eccentricity
0.0002109
Mean motion
15.34179561 rev/d
Perigee alt
461.9 km
Apogee alt
464.8 km
Semi-major
6,841.5 km
B*
1.4101e-3
RAAN
263.6268°
Arg perigee
84.4749°
Mean anomaly
275.6494°
Rev number
12,132

§ Raw data

STARLINK-314301 59375U 24062B   26145.03164736  .00047233  00000+0  14101-2 0  99982 59375  53.1609 263.6268 0002109  84.4749 275.6494 15.34179561121324

JSON: /api/v1/satellites/59375 · /tle

For live sub-satellite position, see the globe view (requires WebGL).

§ Visibility from observer

Set your observer location to see the next 7 days of passes ≥ 10°. The values pass through the URL so the page stays shareable.

No JS? Fill the form by hand. The geolocation button needs JavaScript.